Notices

What's New in latest Release from April 7th, 2021:

- Updated Glossary, including Speed of Maximum Gust, and Total Hourly Precipitation

- Updated national and regional climate services offices contacts and prices information

- Addition of station inventory lists for 1981-2010, 1971-2000, and 1961-1990 Normals.

If you haven't already, please take our survey and provide feedback about our website: https://eccc.sondage-survey.ca/f/LanguageSelection.aspx?s=442ca660-fcf1-47c0-95a9-59707d6fd709

Hourly Data Report for April 16, 2021

WIARTON A
ONTARIO
Current Station Operator: NAVCAN

44°44'39.000" N
81°06'31.000" W
221.90 m
6119499
71633
YVV

Download Data

Hourly Data (April 2021)
Hourly Data Report for April 16, 2021
TIME
LST
Temp Definition
°C
Dew Point Definition
°C
Rel Hum Definition
%
Precip. Amount Definition
mm

Wind Dir Definition
10's deg

Wind Spd Definition
km/h
Visibility Definition
km
Stn Press Definition
kPa
Hmdx Definition


Wind Chill Definition


Weather Definition


00:00 3.6 2.3 91   32 7 24.1 98.21     LegendNANA
01:00 3.6 2.1 90   30 8 24.1 98.18     Cloudy
02:00 3.2 2.4 94   32 14 16.1 98.18     Rain
03:00 3.0 2.1 94   32 10 9.7 98.18     Rain,Fog
04:00 2.4 1.8 95   31 9 6.4 98.19     Rain,Fog
05:00 1.9 1.4 96   32 9 6.4 98.18     Rain,Fog
06:00 2.0 1.5 97   31 10 9.7 98.19     Rain,Fog
07:00 2.0 1.5 96   33 9 8.1 98.22     Rain,Fog
08:00 1.9 1.5 97   33 10 6.4 98.23     Rain,Snow,Fog
09:00 2.4 1.7 95   32 11 9.7 98.23     Drizzle,Fog
10:00 3.2 1.4 88   34 10 12.9 98.24     Cloudy
11:00 3.4 1.4 86   35 9 19.3 98.26     LegendNANA
12:00 3.3 1.4 87   36 10 19.3 98.24     LegendNANA
13:00 3.8 1.9 87   34 10 19.3 98.27     Cloudy
14:00 3.5 2.7 94   34 9 3.2 98.30     Rain,Fog
15:00 3.6 3.1 96   32 9 3.2 98.31     Rain,Fog
16:00 3.8 3.1 96   31 8 4.8 98.33     Rain,Fog
17:00 4.0 3.6 97   30 9 6.4 98.38     Rain,Fog
18:00 4.5 3.8 96   33 9 12.9 98.41     Drizzle
19:00 4.5 3.8 95   33 7 12.9 98.45     Drizzle
20:00 4.4 3.9 97   5 3 9.7 98.50     Rain
21:00 4.8 3.9 94   8 4 16.1 98.53     Rain
22:00 5.0 3.7 91   1 10 24.1 98.52     Mostly Cloudy
23:00 4.5 3.3 92   1 7 24.1 98.53     LegendNANA

Notes on Data Quality.

Legend

  • E = Estimated
  • M = Missing
  • NA = Not Available*
  • [empty] = Indicates an unobserved value
Date modified: